When you browse on this site, cookies collect data to enhance your experience and personalize the content and advertising you see.
Visit our Privacy Policy to learn more. By continuing to use the site, you agree to this use of cookies and data.

Hourly Weather Arosa

Today, 8 August, Saturday

Time Temperature Precipitation Wind Pressure Humidity
00:00 +10°C° 0 mm 1 mps 596 mmHg 94%
01:00 +9°C° 0 mm 1 mps 596 mmHg 93%
02:00 +9°C° 0 mm 1 mps 596 mmHg 93%
03:00 +9°C° 0 mm 1 mps 596 mmHg 93%
04:00 +8°C° 0 mm 1 mps 595 mmHg 93%
05:00 +10°C° 0 mm 1 mps 596 mmHg 89%
06:00 +12°C° 0 mm 1 mps 597 mmHg 85%
07:00 +13°C° 0 mm 0 mps 598 mmHg 79%
08:00 +15°C° 0 mm 1 mps 599 mmHg 69%
09:00 +18°C° 0 mm 1 mps 599 mmHg 58%
10:00 +20°C° 0 mm 1 mps 600 mmHg 47%
11:00 +20°C° 0 mm 1 mps 600 mmHg 44%
12:00 +20°C° 0 mm 2 mps 600 mmHg 41%
13:00 +21°C° 0 mm 2 mps 601 mmHg 37%
14:00 +21°C° 0 mm 2 mps 601 mmHg 39%
15:00 +21°C° 0 mm 2 mps 600 mmHg 40%
16:00 +21°C° 0 mm 2 mps 600 mmHg 42%
17:00 +19°C° 0.1 mm 2 mps 599 mmHg 55%
18:00 +17°C° 0.1 mm 2 mps 599 mmHg 67%
19:00 +15°C° 0.1 mm 1 mps 598 mmHg 79%
20:00 +14°C° 0 mm 1 mps 597 mmHg 83%
21:00 +12°C° 0 mm 1 mps 596 mmHg 88%
22:00 +9°C° 0 mm 0 mps 596 mmHg 92%
23:00 +10°C° 0 mm 1 mps 596 mmHg 91%

Tomorrow, 9 August, Sunday

Time Temperature Precipitation Wind Pressure Humidity
00:00 +10°C° 0 mm 1 mps 596 mmHg 91%
01:00 +10°C° 0 mm 1 mps 596 mmHg 90%
02:00 +10°C° 0 mm 1 mps 595 mmHg 90%
03:00 +9°C° 0 mm 1 mps 595 mmHg 90%
04:00 +9°C° 0 mm 1 mps 595 mmHg 90%
05:00 +11°C° 0 mm 1 mps 596 mmHg 86%
06:00 +12°C° 0 mm 1 mps 596 mmHg 82%
07:00 +14°C° 0 mm 1 mps 597 mmHg 78%
08:00 +15°C° 0 mm 1 mps 598 mmHg 69%
09:00 +18°C° 0 mm 1 mps 598 mmHg 60%
10:00 +20°C° 0 mm 1 mps 599 mmHg 51%
11:00 +21°C° 0 mm 1 mps 599 mmHg 47%
12:00 +21°C° 0 mm 1 mps 599 mmHg 43%
13:00 +21°C° 0 mm 2 mps 599 mmHg 39%
14:00 +21°C° 0.1 mm 2 mps 599 mmHg 41%
15:00 +21°C° 0.1 mm 2 mps 599 mmHg 42%
16:00 +21°C° 0.1 mm 2 mps 598 mmHg 44%
17:00 +19°C° 0.1 mm 2 mps 598 mmHg 55%
18:00 +18°C° 0.1 mm 1 mps 597 mmHg 66%
19:00 +16°C° 0.1 mm 1 mps 596 mmHg 77%
20:00 +14°C° 0 mm 1 mps 595 mmHg 81%
21:00 +12°C° 0 mm 1 mps 595 mmHg 85%
22:00 +10°C° 0 mm 0 mps 594 mmHg 89%
23:00 +11°C° 0 mm 1 mps 594 mmHg 88%

Day after tomorrow, 10 August, Monday

Time Temperature Precipitation Wind Pressure Humidity
00:00 +11°C° 0 mm 1 mps 594 mmHg 87%
01:00 +10°C° 0 mm 1 mps 594 mmHg 87%
02:00 +10°C° 0 mm 1 mps 594 mmHg 86%
03:00 +10°C° 0 mm 1 mps 593 mmHg 86%
04:00 +10°C° 0 mm 1 mps 593 mmHg 86%
05:00 +11°C° 0 mm 1 mps 594 mmHg 82%
06:00 +13°C° 0 mm 1 mps 594 mmHg 79%
07:00 +14°C° 0 mm 1 mps 595 mmHg 75%
08:00 +16°C° 0 mm 1 mps 596 mmHg 68%
09:00 +18°C° 0 mm 1 mps 597 mmHg 61%
10:00 +20°C° 0 mm 1 mps 597 mmHg 54%
11:00 +21°C° 0.1 mm 1 mps 598 mmHg 50%
12:00 +22°C° 0.1 mm 1 mps 598 mmHg 46%
13:00 +21°C° 0.1 mm 2 mps 598 mmHg 43%
14:00 +21°C° 0.3 mm 2 mps 597 mmHg 45%
15:00 +21°C° 0.3 mm 2 mps 597 mmHg 47%
16:00 +20°C° 0.3 mm 2 mps 597 mmHg 49%
17:00 +19°C° 0.9 mm 2 mps 596 mmHg 60%
18:00 +18°C° 0.9 mm 1 mps 596 mmHg 71%
19:00 +15°C° 0.9 mm 1 mps 595 mmHg 82%
20:00 +14°C° 0.4 mm 1 mps 595 mmHg 83%
21:00 +12°C° 0.4 mm 0 mps 594 mmHg 83%
22:00 +11°C° 0.4 mm 0 mps 594 mmHg 84%
23:00 +12°C° 0 mm 1 mps 594 mmHg 83%

11 August, Tuesday

Time Temperature Precipitation Wind Pressure Humidity
00:00 +12°C° 0 mm 1 mps 594 mmHg 83%
01:00 +11°C° 0 mm 1 mps 594 mmHg 83%
02:00 +11°C° 0 mm 1 mps 594 mmHg 83%
03:00 +11°C° 0 mm 1 mps 593 mmHg 84%
04:00 +10°C° 0 mm 1 mps 593 mmHg 84%
05:00 +12°C° 0 mm 1 mps 594 mmHg 81%
06:00 +13°C° 0 mm 1 mps 595 mmHg 77%
07:00 +14°C° 0 mm 0 mps 595 mmHg 73%
08:00 +16°C° 0.2 mm 1 mps 596 mmHg 67%
09:00 +18°C° 0.2 mm 1 mps 597 mmHg 62%
10:00 +20°C° 0.2 mm 1 mps 597 mmHg 56%
11:00 +20°C° 0.8 mm 1 mps 597 mmHg 55%
12:00 +21°C° 0.8 mm 1 mps 598 mmHg 54%
13:00 +21°C° 0.8 mm 1 mps 598 mmHg 53%
14:00 +21°C° 1.5 mm 1 mps 597 mmHg 58%
15:00 +19°C° 1.5 mm 2 mps 597 mmHg 64%
16:00 +18°C° 1.5 mm 2 mps 596 mmHg 69%
17:00 +18°C° 1.3 mm 1 mps 596 mmHg 74%
18:00 +16°C° 1.3 mm 1 mps 595 mmHg 79%
19:00 +14°C° 1.3 mm 0 mps 595 mmHg 85%
20:00 +13°C° 0.2 mm 0 mps 595 mmHg 85%
21:00 +11°C° 0.2 mm 0 mps 594 mmHg 86%
22:00 +10°C° 0.2 mm 0 mps 594 mmHg 87%
23:00 +11°C° 0 mm 1 mps 594 mmHg 86%

12 August, Wednesday

Time Temperature Precipitation Wind Pressure Humidity
00:00 +11°C° 0 mm 1 mps 594 mmHg 86%
01:00 +11°C° 0 mm 1 mps 593 mmHg 86%
02:00 +10°C° 0 mm 1 mps 593 mmHg 86%
03:00 +10°C° 0 mm 1 mps 593 mmHg 87%
04:00 +10°C° 0 mm 1 mps 593 mmHg 87%
05:00 +11°C° 0 mm 1 mps 593 mmHg 84%
06:00 +13°C° 0 mm 1 mps 594 mmHg 80%
07:00 +14°C° 0 mm 1 mps 595 mmHg 77%
08:00 +16°C° 0 mm 1 mps 595 mmHg 70%
09:00 +18°C° 0 mm 1 mps 596 mmHg 62%
10:00 +18°C° 0 mm 0 mps 597 mmHg 54%
11:00 +21°C° 0.1 mm 1 mps 597 mmHg 51%
12:00 +21°C° 0.1 mm 1 mps 597 mmHg 48%
13:00 +21°C° 0.1 mm 2 mps 597 mmHg 44%
14:00 +21°C° 0.2 mm 2 mps 597 mmHg 45%
15:00 +21°C° 0.2 mm 2 mps 597 mmHg 45%
16:00 +21°C° 0.2 mm 2 mps 597 mmHg 46%
17:00 +19°C° 0.5 mm 2 mps 596 mmHg 57%
18:00 +18°C° 0.5 mm 1 mps 595 mmHg 69%
19:00 +15°C° 0.5 mm 1 mps 595 mmHg 80%
20:00 +14°C° 0.2 mm 1 mps 594 mmHg 81%
21:00 +14°C° 0.2 mm 1 mps 594 mmHg 82%
22:00 +13°C° 0.2 mm 1 mps 594 mmHg 82%
23:00 +12°C° 0 mm 1 mps 594 mmHg 82%

13 August, Thursday

Time Temperature Precipitation Wind Pressure Humidity
00:00 +12°C° 0 mm 1 mps 594 mmHg 81%
01:00 +11°C° 0 mm 1 mps 593 mmHg 80%
02:00 +11°C° 0.1 mm 1 mps 593 mmHg 81%
03:00 +10°C° 0.1 mm 0 mps 593 mmHg 81%
04:00 +10°C° 0.1 mm 0 mps 593 mmHg 81%
05:00 +12°C° 0.1 mm 1 mps 594 mmHg 79%
06:00 +13°C° 0.1 mm 1 mps 594 mmHg 76%
07:00 +14°C° 0.1 mm 1 mps 595 mmHg 74%
08:00 +15°C° 0.1 mm 1 mps 595 mmHg 66%
09:00 +16°C° 0.1 mm 0 mps 596 mmHg 59%
10:00 +17°C° 0.1 mm 0 mps 596 mmHg 52%
11:00 +18°C° 0.3 mm 0 mps 596 mmHg 51%
12:00 +20°C° 0.3 mm 1 mps 596 mmHg 50%
13:00 +20°C° 0.3 mm 1 mps 596 mmHg 50%
14:00 +19°C° 1.2 mm 1 mps 596 mmHg 56%
15:00 +18°C° 1.2 mm 2 mps 596 mmHg 62%
16:00 +17°C° 1.2 mm 2 mps 595 mmHg 69%
17:00 +15°C° 1.1 mm 1 mps 595 mmHg 75%
18:00 +14°C° 1.1 mm 1 mps 595 mmHg 81%
19:00 +13°C° 1.1 mm 1 mps 594 mmHg 87%
20:00 +12°C° 0.7 mm 1 mps 594 mmHg 88%
21:00 +11°C° 0.7 mm 1 mps 594 mmHg 89%
22:00 +9°C° 0.7 mm 1 mps 593 mmHg 90%
23:00 +9°C° 0.1 mm 1 mps 593 mmHg 92%
Show more